Tracking 28790 objects as of 19-Apr-2024
HD Live streaming from Space Station
objects crossing your sky now

COSMOS 2376 (GLONASS)

Track COSMOS 2376 (GLONASS) now!
COSMOS 2376 (GLONASS) is classified as:


NORAD ID: 26565
Int'l Code: 2000-063B
Perigee: 19,124.2 km
Apogee: 19,149.8 km
Inclination: 65.6 °
Period: 675.7 minutes
Semi major axis: 25507 km
RCS: 2.5118 m2 (large)
Launch date: October 13, 2000
Source: Commonwealth of Independent States (former USSR) (CIS)
Launch site: TYURATAM MISSILE AND SPACE COMPLEX (TTMTR)

Russia's version of the GPS system, functions the same; there has been cooperation between the two; much scaled-back constellation
Your satellite tracking list
Your tracking list is empty




NASA's NSSDC Master Catalog

Two Line Element Set (TLE):
1 26565U 00063B   24106.39632678 -.00000075  00000-0  00000+0 0  9992
2 26565  65.6039 340.7536 0005026  33.3736 145.0916  2.13102454182910
Source of the keplerian elements: AFSPC